STARLINK-4609, 53619

Orbit data source: Space-Track

STARLINK-4609, 53619 is a payload satellite owned by SpaceX/Seattle (US) in LEO that was launched on Sun, 28 Aug 2022 UTC via an FALCON 9 launch vehicle from the Air Force Eastern Test Range (AFETR). Payloads include a variety of satellites, spacecraft, and rockets equipped with specific instruments for various scientific and technological missions. These include communications satellites like Starlink; space stations such as the ISS; scientific satellites like the Hubble; Earth observation satellites from companies like Planet Labs, Umbra, and HawkEye 360; GPS; miniature CubeSats for education and research; and military/defense satellites.

Loading next visibility...
STARLINK-4609 details
Identifier
53619, 2022-104AH
Orbit
LEO
Last TLE update7 hours ago
Origin
Flag of USSpaceX/Seattle (US)
ManufacturerSpaceX/Seattle
MissionOperational Commercial Communications
Bus & MotorSTARLINK, Unknown motor
Mass300 kg wet, ~290 kg dry
Launch date (UTC)
2022-08-28 (2 years ago)
Launch vehicle
FALCON 9
Launch site
Air Force Eastern Test Range (AFETR)
Object type
Payload
Rocket body
Debris
Shape & HBRBox + 1 Pan, 8.86 m
Radar Cross Section13.562 m², Large (>1 m²)

Expand to show TLE details & history

TLE from 7 hours ago
0 STARLINK-4609
1 53619U 22104AH  24361.43587228  .00002230  00000-0  15815-3 0  9998
2 53619  53.2195  41.5128 0001606  91.4056 268.7120 15.08849644128905
Epoch: 2024-12-26T10:27Z
Definitive object data (Epoch: 2024-12-26T10:27:39.364Z)
Latitude-0.00006°
Longitude149.18344°
Altitude540.637 km
Speed7.593 km/s
True Right ascension02h 46m 03s
True Declination0° 00' 00"
Sunlit
Object was in full shadow at TLE epoch
Visualization TLE readout
Latitude52.23217°
Longitude-138.41755°
Altitude544.97 km
Speed7.597 km/s
Apparent Right ascension05h 57m 17s
Apparent Declination9° 17' 10"
Sunlit
Object is in full shadow
Visualization observer readout
Local Sidereal Time16:32:40
Azimuth333.5° NNW
Elevation-37.041°
Doppler factor1
Orbital elements
Apogee altitude541.07 km
Perigee altitude538.847 km
Semi-major axis6,918.096 km
Eccentricity0.0001606
Inclination53.2195°
RAAN41.5128°
Arg. of periapsis91.4056°
True anomaly268.6936°
Mean anomaly268.712°
Eccentric anomaly268.7028°
Mean motion3.77193 °/min
BSTAR0.00015815
Orbital period95.44 mins
Loading maneuver chart data...
Loading historical data...
Loading historical data...
Loading historical data...
Loading historical data...
Loading historical data...
Loading historical data...
Loading historical data...

STARLINK-4609 Visibility forecast

Observer location: undefined°, undefined

Span
Click to sort rows by Start time (UTC) header in descending order
Start Az.
Max El. time (UTC)
Max El. Az.
Max El.
End time (UTC)
End Az.
6 mins2024-12-27 05:44:22.542Z234.05° WSW2024-12-27 05:46:22.542Z277.441° WNW44.556°2024-12-27 05:50:22.542Z48.496° ENE
4 mins2024-12-27 10:46:22.542Z356.925° N2024-12-27 10:47:22.542Z16.888° NNE19.428°2024-12-27 10:50:22.542Z68.835° E
7 mins2024-12-27 12:24:22.542Z309.835° NW2024-12-27 12:27:22.542Z275.427° WNW44.986°2024-12-27 12:31:22.542Z131.702° SE
|